User: anonymous   Login
Location: Trois-Rivi�res
(46.3500°N, 72.5500°W)
Time: 13:31:04
(UTC-04:00)
Language:

Cosmos 1975 - Orbit

View from above orbital plane
View from above orbital plane
View from above satellite
View from above satellite

Ground track
Ground track

The orbit data is extracted from the following two-line orbital elements,

1 19573U 88093A   17293.86324579 +.00000291 +00000-0 +18787-4 0  9996
2 19573 082.5217 223.8739 0012946 226.2209 133.7947 15.04296058557563
Epoch (UTC): 20 October 2017 20:43:04
Eccentricity: 0.0012946
inclination: 82.5217°
perigee height: 544 km
apogee height: 562 km
right ascension of ascending node: 223.8739°
argument of perigee: 226.2209°
revolutions per day: 15.04296058
mean anomaly at epoch: 133.7947°
orbit number at epoch: 55756

The dashed part of the orbit path shows where the satellite is in the earth's shadow,  

DLR